sat.trackr.live / text

‹ back to catalog

KUIPER-00191

NORAD 67143 · 2025-301L

PAYLOAD ACTIVE UNKNOWN

§ Identity

Operator
Country
US
Launch date
2025-12-16
Launch site
AFETR
Launch vehicle
Mass (kg)
RCS (m²)

External: N2YO · Heavens-Above · Gunter

§ Orbital elements

Epoch: 2026-05-25T03:05:01.762368Z

Period
97.30 min
Inclination
51.9005°
Eccentricity
0.0000835
Mean motion
14.79958926 rev/d
Perigee alt
628.9 km
Apogee alt
630.0 km
Semi-major
7,007.6 km
B*
4.0087e-4
RAAN
95.1322°
Arg perigee
66.6705°
Mean anomaly
293.4345°
Rev number
2,497

§ Raw data

KUIPER-001911 67143U 25301L   26145.12849262  .00002838  00000+0  40087-3 0  99962 67143  51.9005  95.1322 0000835  66.6705 293.4345 14.79958926 24973

JSON: /api/v1/satellites/67143 · /tle

For live sub-satellite position, see the globe view (requires WebGL).

§ Visibility from observer

Set your observer location to see the next 7 days of passes ≥ 10°. The values pass through the URL so the page stays shareable.

No JS? Fill the form by hand. The geolocation button needs JavaScript.